Location: Wawayanda State Park
(41.1833°N, 74.4333°W)
Time: 04:16:44
(UTC-04:00)

Daily predictions for brighter satellites

Satellite Brightness Start Highest point End
(mag) Time Altitude Azimuth Time Altitude Azimuth Time Altitude Azimuth
SL-16 R/B 4.3 02:31:15 26° NNE 02:31:15 26° NNE 02:34:28 10° N
CENTAUR R/B 4.2 02:42:56 28° NE 02:42:56 28° NE 02:46:10 10° NE
SL-16 R/B 4.5 02:49:59 19° ENE 02:49:59 19° ENE 02:52:02 10° NE
CZ-2D R/B 3.9 03:09:19 10° NNE 03:11:58 28° NNE 03:11:58 28° NNE
Cosmos 2360 Rocket 4.4 03:16:06 18° E 03:16:06 18° E 03:19:29 10° ENE
Cosmos 1980 Rocket 4.0 03:19:14 26° N 03:19:14 26° N 03:21:42 10° NNE
Resurs 1-4 Rocket 4.0 03:14:15 10° NNE 03:16:34 26° NNE 03:16:34 26° NNE
Okean O Rocket 4.5 03:30:15 10° ENE 03:31:54 12° E 03:32:21 12° E
FALCON 9 R/B 4.2 03:31:23 63° SSW 03:32:57 66° S 04:11:05 10° ESE
Cosmos 2263 Rocket 3.7 03:28:04 10° NNW 03:31:06 29° N 03:31:06 29° N
ADEOS II 4.5 03:43:27 10° NE 03:46:54 17° E 03:49:54 11° SE
Cosmos 2315 Rocket 4.2 04:10:00 59° NNW 04:10:00 59° NNW 04:15:13 10° N
SL-16 R/B 4.2 04:16:19 20° NW 04:16:19 20° NW 04:18:17 10° NNW
Lacrosse 4 Rocket 3.6 04:09:30 10° N 04:13:00 25° NE 04:16:31 10° ESE
Tiangong 2 4.0 04:27:08 16° E 04:27:08 16° E 04:27:56 10° E
SL-08 ROCKET BODY 4.2 04:20:01 10° N 04:25:55 86° E 04:27:25 53° SSE
Cosmos 2322 Rocket 2.9 04:28:06 41° NW 04:28:06 41° NW 04:32:36 10° NNE
Nadezhda 1 Rocket 4.4 04:26:10 24° SSE 04:29:48 58° E 04:35:45 10° NNE
USA 215 3.3 04:23:38 10° SE 04:30:13 81° NE 04:36:48 10° NW
ADEOS Rocket 3.5 04:25:09 10° N 04:29:19 38° NW 04:29:19 38° NW
CENTAUR R/B 3.4 04:30:07 34° NW 04:30:38 34° NW 04:36:56 10° NNE
SL-16 R/B 2.8 04:31:51 41° NW 04:31:51 41° NW 04:36:35 10° NNE
COSMOS 2428 3.9 04:32:15 20° SSE 04:35:37 38° ESE 04:40:50 10° NE
Cosmos 2074 Rocket 3.8 04:36:24 10° N 04:42:41 81° W 04:47:30 18° S
Cosmos 2219 Rocket 4.2 04:38:34 10° SSE 04:42:58 24° ESE 04:47:23 10° NE
ARIANE 5 R/B 4.3 04:41:57 10° NNW 04:44:11 19° NW 04:44:11 19° NW
Meteor 2-13 Rocket 4.4 04:42:08 10° N 04:48:19 85° E 04:54:27 10° S
ISS -1.5 04:51:37 18° SE 04:51:37 18° SE 04:52:34 10° SE
Cosmos 1844 Rocket 3.9 04:46:23 10° N 04:51:42 42° ENE 04:56:56 10° SE
Cosmos 1570 Rocket 4.4 04:50:48 27° S 04:53:36 61° ESE 04:58:45 10° NNE
IRS-1C Rocket 4.2 04:48:36 10° NNE 04:53:53 75° ESE 04:57:00 25° S
CZ-2D R/B 3.8 04:50:22 10° NNW 04:53:19 20° NW 04:53:19 20° NW
Cosmos 1544 Rocket 3.7 04:53:14 10° NNW 04:57:05 55° WNW 04:57:05 55° WNW
MTI 4.1 04:58:45 65° NE 04:58:45 65° NE 05:01:46 10° N
Resurs 1-4 Rocket 3.9 04:55:24 10° NNW 04:57:40 17° NW 04:57:40 17° NW
Cosmos 2360 Rocket 2.2 04:57:54 48° WSW 04:59:12 62° WNW 05:04:49 10° NNE
Cosmos 1980 Rocket 4.3 05:01:00 11° NW 05:01:18 11° NW 05:02:40 10° NNW
CZ-4B R/B 2.6 04:59:02 10° N 05:02:24 69° NW 05:02:24 69° NW
Cosmos 1812 4.3 05:04:57 23° NNW 05:04:57 23° NNW 05:06:52 10° NNW
Cosmos 2237 Rocket 4.4 05:03:26 10° SSE 05:07:48 23° E 05:12:11 10° NE
Okean O Rocket 1.6 05:04:15 10° N 05:08:40 64° WNW 05:09:49 45° SW
PAYLOAD B 4.2 05:08:30 10° N 05:14:07 73° WNW 05:18:05 20° SSW
Cosmos 2184 Rocket 4.2 05:11:00 10° NNW 05:16:51 45° W 05:22:44 10° SSW
Cosmos 2263 Rocket 4.3 05:12:30 10° NW 05:12:41 11° NW 05:12:41 11° NW
Cosmos 1340 3.1 05:18:04 42° WNW 05:18:04 42° WNW 05:21:33 10° N
Okean-O 3.8 05:14:21 10° NNE 05:18:36 44° E 05:22:50 10° S
Meteor 1-12 Rocket 4.3 05:13:50 10° NNW 05:19:18 50° W 05:24:46 10° SSW
Cosmos 1777 Rocket 4.4 05:17:35 10° NW 05:22:27 38° WSW 05:27:18 10° SSW
DELTA 2 R/B (1) 3.8 05:20:34 30° SW 05:23:10 59° SSE 05:28:37 10° E
ATLAS 5 CENTAUR R/B 3.9 05:18:12 10° NNW 05:23:42 38° NE 05:29:37 10° ESE
Cosmos 2333 Rocket 3.4 05:18:27 10° S 05:23:47 43° ESE 05:29:10 10° NE
Cosmos 1666 3.4 05:21:19 10° N 05:25:08 55° E 05:28:57 10° SSE
ADEOS II 2.1 05:21:49 10° N 05:26:59 58° WNW 05:30:52 17° SSW
Cosmos 1743 2.6 05:23:28 10° N 05:27:21 80° W 05:31:11 10° S
Meteor 1-31 Rocket 3.4 05:24:11 10° NNE 05:27:56 56° E 05:31:41 10° S
Cosmos 1455 Rocket 3.8 05:27:38 10° NNW 05:31:29 30° W 05:32:07 29° WSW
Cosmos 1025 Rocket 4.0 05:27:25 10° SSE 05:31:38 50° E 05:35:54 10° NNE
Cosmos 2322 4.3 05:29:55 26° WSW 05:32:28 39° WNW 05:37:51 10° N
Lacrosse 5 3.7 05:34:51 14° SSW 05:34:51 14° SSW 05:35:57 10° SSW
MOS 1 Rocket 4.4 05:28:44 10° NNW 05:32:33 24° WNW 05:33:13 24° W
EO 1 Del DPAF 3.8 05:34:10 23° SW 05:35:52 34° W 05:39:25 10° NNW
Cosmos 962 Rocket 4.4 05:31:34 10° N 05:37:50 79° W 05:44:09 10° S
Meteor 1-13 Rocket 4.1 05:34:27 10° SSW 05:39:56 67° WNW 05:45:31 10° N
USA 116 3.9 05:40:31 10° S 05:44:35 76° WSW 05:49:16 10° NNW
Cosmos 1238 Rocket 2.7 05:46:13 25° SW 05:47:19 35° W 05:50:05 10° N
Cosmos 2154 Rocket 4.2 05:44:38 10° NNW 05:50:30 46° W 05:56:21 10° SSW
Cosmos 1975 4.2 05:47:49 10° NW 05:50:38 19° W 05:50:38 19° W
Cosmos 2333 4.3 05:46:11 11° SW 05:51:27 58° WNW 05:57:06 10° NNE
Meteor 2-19 Rocket 4.4 05:45:25 10° N 05:51:31 76° W 05:57:32 10° S
Lacrosse 4 Rocket 2.1 05:47:59 10° NW 05:51:42 31° WSW 05:55:29 10° S
Cosmos 1844 3.7 05:47:49 10° NNW 05:53:37 82° WSW 05:59:18 10° SSE
SJ-6F 4.5 05:50:44 10° NNE 05:54:49 83° E 05:58:54 10° S
Aureole 2 Rocket 3.4 05:54:57 10° S 05:58:35 51° ESE 06:01:57 10° NNE
CZ-4B R/B 4.0 05:54:41 10° N 05:59:40 33° WNW 06:04:35 10° SW
Meteor PRIRODA 4.3 05:57:39 10° N 06:01:09 37° WNW 06:04:37 10° SW
Tiangong 2 1.1 05:59:14 17° W 06:01:29 63° SSW 06:04:36 10° ESE
Iridium 2 3.7 05:58:16 10° N 06:02:06 88° E 06:05:56 10° S
Cosmos 1437 3.2 05:59:02 10° S 06:02:17 67° E 06:05:33 10° NNE
SL-16 R/B 4.4 05:57:54 10° SSE 06:02:37 28° ESE 06:07:21 10° NE
Cosmos 1867 3.9 06:00:08 10° NNW 06:05:37 73° ENE 06:11:02 10° SE
Cosmos 2058 Rocket 4.3 06:01:40 10° N 06:06:02 48° E 06:10:20 10° SSE
SKYMED 2 3.8 06:03:26 10° SSE 06:07:45 75° ENE 06:12:06 10° N
Geosat 4.5 06:02:55 10° SE 06:07:53 67° ENE 06:12:54 10° NNW
Okean 1-7 Rocket 3.8 06:03:55 10° SSW 06:08:18 49° W 06:12:40 10° N
Cosmos 2181 Rocket 4.2 06:04:33 10° SSW 06:10:33 53° WNW 06:16:43 10° N
USA 215 4.1 06:08:11 10° S 06:13:37 27° SW 06:19:04 10° WNW
Cosmos 1980 3.7 06:08:13 10° SSW 06:13:52 90° ESE 06:19:32 10° NNE
SL-8 Rocket 4.0 06:08:23 10° NNW 06:14:34 67° W 06:20:39 10° S
Meteor 1-23 Rocket 4.3 06:12:35 10° SSW 06:18:19 63° WNW 06:24:04 10° N
COSMOS 2428 3.6 06:14:55 10° WSW 06:19:55 32° WNW 06:24:59 10° N
ERS-2 3.3 06:17:06 10° NNW 06:20:13 25° WNW 06:23:17 10° SW
Radarsat Rocket 4.0 06:16:00 10° NNE 06:22:02 90° E 06:27:51 10° SSW
Thor Agena Rocket 3.7 06:17:55 10° S 06:22:49 49° W 06:27:43 10° NNW
USA 229 DEB 3.8 06:18:13 10° SW 06:25:01 66° NW 06:31:57 10° NNE
USA 229 3.8 06:18:20 10° SW 06:25:07 66° NW 06:32:03 10° NNE
Cosmos 2219 Rocket 2.5 06:21:14 10° SW 06:26:35 46° WNW 06:31:58 10° NNE
Okean 2 3.6 06:24:16 10° SSW 06:28:18 50° W 06:32:22 10° N
Cosmos 1606 Rocket 3.7 06:24:10 10° NNW 06:28:34 57° W 06:32:56 10° S
Cosmos 864 Rocket 4.5 06:22:45 10° N 06:28:56 75° W 06:35:08 10° S
Cosmos 2150 Rocket 4.1 06:25:11 10° NNW 06:30:23 60° WSW 06:35:38 10° S
